Temp
67 68 70 70 70 70 70 70 70 71 70 70 69 68 69 70 70 72 72 72 71 70 70 69 70 69 68 67 66 67 65 66
65 66 67 67 68 69 69 69 68 68 68 68 68 68 67 69 68 70 71 71 70 70 69 69 68 68 67 66 66 66 63 62
64 65 65 65 65 66 68 68 68 67 67 66 66 67 67 67 68 69 71 70 69 69 68 67 66 67 66 66 66 64 64 62
63 64 64 64 65 65 64 66 66 67 67 66 65 65 66 67 67 68 70 68 68 68 67 66 66 64 65 65 64 63 62 60
62 63 63 64 63 64 64 65 65 65 65 64 64 64 65 63 64 66 66 67 65 65 64 62 62 64 61 63 62 61 58 60
62 62 64 65 63 62 62 64 63 62 64 64 62 62 62 62 65 66 64 64 61 61 59 60 60 61 62 62 61 61 57 58
61 61 62 63 63 62 61 62 62 61 62 62 62 61 62 63 65 64 64 60 61 60 60 59 60 62 61 61 59 58 58 58
60 61 61 61 61 62 62 62 63 62 61 61 62 63 63 63 64 64 61 62 60 60 60 61 59 60 59 60 59 59 57 57
60 60 60 60 60 63 62 61 62 62 62 62 62 64 63 65 65 63 61 60 57 56 57 57 57 61 58 59 59 58 58 57
59 61 59 59 59 63 63 63 61 61 62 62 62 63 65 63 63 61 59 59 59 59 58 56 59 59 56 56 57 58 57 57
59 58 58 58 59 59 62 62 61 62 62 61 62 62 64 63 62 60 59 59 59 59 54 57 58 57 57 54 55 56 57 60
58 57 57 58 59 59 61 61 61 63 62 62 61 63 62 62 61 59 60 59 57 58 58 54 56 57 61 56 53 54 55 56
56 56 56 58 59 58 58 59 60 61 62 62 63 62 62 61 61 60 59 60 59 58 57 56 53 56 56 53 53 54 54 55
56 56 57 58 58 57 59 59 60 60 61 62 61 61 62 62 61 61 59 60 57 59 58 53 53 56 54 52 48 52 55 55
56 57 57 58 60 59 58 58 60 59 60 62 61 60 62 62 62 62 61 61 59 59 59 55 57 52 59 54 48 49 50 53
56 58 56 57 58 58 59 58 58 59 59 60 61 60 61 62 63 63 62 62 61 61 62 58 58 56 53 57 56 55 50 48
56 57 55 56 59 59 57 58 60 60 58 58 59 60 60 61 61 61 60 61 60 61 60 58 61 58 57 54 54 54 53 52
55 57 58 56 57 59 59 58 58 59 58 56 58 59 59 60 61 60 59 59 58 58 59 59 60 58 57 55 54 54 52 52
56 57 57 56 60 59 58 58 59 59 59 57 56 57 58 59 60 59 59 59 59 58 58 58 57 56 57 55 57 57 56 54
57 57 57 57 56 58 59 59 59 59 60 59 58 58 59 59 60 59 59 59 59 58 57 57 57 57 57 57 56 57 57 56
MSLP
1007.02 1007.33 1007.64 1007.96 1008.24 1008.44 1008.83 1009.07 1009.56 1010.24 1010.88 1011.48 1011.21 1011.46 1013.57 1013.79 1014.24 1014.25 1014.30 1014.90 1015.53 1016.07 1016.38 1016.48 1016.80 1017.22 1017.60 1017.95 1018.34 1018.39 1018.84 1019.11
1007.30 1007.52 1007.61 1007.97 1008.21 1008.46 1008.64 1008.96 1009.20 1010.45 1011.29 1011.63 1011.76 1011.80 1012.38 1013.50 1013.24 1014.49 1014.68 1015.30 1015.92 1016.30 1016.69 1016.85 1017.15 1017.50 1017.75 1018.14 1018.61 1018.76 1019.14 1019.40
1007.22 1007.45 1007.65 1008.01 1008.20 1008.41 1008.65 1008.90 1009.42 1009.68 1010.82 1011.63 1012.13 1011.97 1012.67 1012.86 1012.63 1013.40 1015.14 1015.47 1016.05 1016.44 1016.81 1017.17 1017.41 1017.82 1017.99 1018.35 1018.84 1019.17 1019.38 1019.71
1007.06 1007.36 1007.51 1007.93 1008.10 1008.35 1008.70 1009.07 1009.53 1009.91 1010.42 1011.03 1011.97 1012.48 1012.77 1012.72 1012.96 1013.59 1015.00 1015.54 1016.19 1016.52 1016.97 1017.40 1017.71 1018.35 1018.62 1018.72 1019.16 1019.32 1019.92 1020.24
1006.86 1007.22 1007.30 1007.69 1008.09 1008.30 1008.61 1008.97 1009.33 1009.92 1010.43 1011.12 1011.72 1012.33 1012.82 1012.73 1013.10 1013.58 1014.81 1015.64 1016.36 1016.68 1017.08 1017.58 1017.89 1018.43 1018.81 1019.03 1019.25 1019.72 1020.27 1020.55
1006.62 1006.97 1007.21 1007.41 1007.74 1008.27 1008.59 1008.83 1009.24 1009.71 1010.26 1011.10 1011.54 1012.01 1012.59 1012.74 1012.87 1013.75 1014.78 1015.66 1016.29 1016.78 1017.28 1017.69 1018.09 1018.49 1018.95 1019.49 1019.42 1019.94 1020.59 1020.90
1006.58 1006.84 1007.05 1007.32 1007.66 1008.10 1008.53 1008.80 1009.17 1009.60 1010.08 1010.94 1011.31 1011.78 1012.09 1012.58 1013.10 1013.79 1014.74 1015.51 1016.21 1016.81 1017.21 1017.74 1018.32 1018.73 1019.16 1019.14 1019.88 1020.26 1020.75 1021.14
1006.40 1006.75 1006.95 1007.19 1007.53 1007.88 1008.28 1008.71 1008.93 1009.41 1009.93 1010.42 1010.90 1011.49 1011.96 1012.43 1013.08 1013.73 1014.35 1015.26 1016.19 1016.64 1017.13 1017.64 1018.38 1018.81 1019.29 1019.66 1020.03 1020.38 1020.93 1021.39
1006.15 1006.51 1006.77 1007.04 1007.35 1007.73 1008.10 1008.53 1008.74 1009.14 1009.58 1010.13 1010.73 1010.97 1011.40 1011.93 1012.62 1013.56 1014.38 1014.81 1016.21 1016.91 1017.56 1017.87 1018.42 1018.97 1019.51 1019.88 1020.26 1020.69 1021.12 1021.57
1005.91 1006.30 1006.61 1006.94 1007.19 1007.58 1007.89 1008.19 1008.54 1008.86 1009.07 1009.46 1009.98 1010.34 1010.71 1011.57 1012.31 1013.38 1014.32 1014.55 1015.98 1016.72 1017.76 1018.12 1018.68 1018.98 1019.76 1020.33 1020.62 1021.01 1021.36 1021.65
1005.71 1006.12 1006.50 1006.87 1007.02 1007.41 1007.64 1007.86 1008.26 1008.53 1008.53 1008.85 1009.05 1009.64 1010.14 1010.89 1011.98 1013.08 1014.07 1014.58 1015.80 1016.49 1017.61 1017.94 1018.61 1019.08 1019.85 1020.56 1020.99 1021.33 1021.45 1021.60
1005.39 1005.98 1006.39 1006.72 1006.78 1007.34 1007.54 1007.72 1007.92 1008.14 1007.84 1008.35 1008.83 1009.14 1009.99 1010.43 1011.86 1012.87 1013.40 1014.68 1015.76 1016.45 1017.34 1017.97 1018.39 1019.15 1020.08 1020.68 1021.18 1021.53 1021.56 1021.68
1005.23 1005.85 1006.25 1006.47 1006.61 1007.27 1007.41 1007.59 1007.71 1007.78 1007.57 1007.94 1008.40 1009.19 1009.78 1010.67 1011.71 1012.64 1013.40 1014.35 1015.25 1016.19 1017.02 1017.77 1018.64 1019.08 1020.11 1021.30 1021.78 1022.00 1021.99 1021.94
1005.11 1005.51 1005.97 1006.21 1006.22 1006.84 1007.10 1007.28 1007.42 1007.62 1007.52 1007.71 1008.09 1008.99 1009.81 1010.49 1011.50 1012.26 1013.30 1014.23 1015.29 1015.96 1016.42 1017.42 1018.42 1018.63 1019.44 1020.73 1021.88 1022.21 1022.05 1022.05
1004.69 1005.26 1005.76 1006.00 1005.99 1006.45 1006.96 1007.20 1007.38 1007.47 1007.59 1007.33 1007.94 1008.59 1009.57 1010.28 1011.35 1012.09 1013.04 1014.20 1015.00 1015.73 1016.12 1016.59 1017.82 1018.82 1018.78 1019.34 1021.03 1021.35 1021.71 1021.73
1004.40 1004.87 1005.61 1005.77 1005.87 1006.30 1006.63 1006.84 1007.03 1007.28 1007.50 1007.30 1007.62 1008.69 1009.57 1010.39 1011.00 1011.96 1013.21 1014.02 1014.77 1015.31 1015.98 1016.45 1016.88 1018.24 1018.98 1018.91 1019.41 1019.93 1021.01 1021.70
1004.24 1004.64 1005.51 1005.67 1005.89 1006.06 1006.43 1006.64 1006.87 1007.06 1007.56 1007.71 1007.75 1008.78 1009.65 1010.36 1011.25 1012.19 1013.28 1013.93 1014.52 1015.07 1015.94 1016.37 1016.66 1017.64 1018.11 1019.00 1019.59 1020.13 1020.17 1020.88
1004.19 1004.59 1005.46 1005.71 1005.96 1005.97 1006.22 1006.47 1006.70 1007.06 1007.61 1008.14 1008.17 1008.56 1009.76 1010.85 1011.59 1012.58 1013.13 1013.92 1014.34 1015.02 1015.73 1016.04 1016.64 1017.24 1017.99 1018.25 1019.02 1019.59 1019.77 1020.65
1004.05 1004.52 1005.11 1005.49 1005.81 1005.94 1006.14 1006.40 1006.68 1006.97 1007.45 1008.01 1008.62 1009.22 1010.05 1010.75 1011.56 1012.52 1013.45 1013.78 1014.45 1015.07 1015.76 1016.22 1016.74 1017.29 1017.63 1018.23 1018.82 1019.19 1019.23 1019.81
1003.59 1004.23 1004.71 1005.15 1005.58 1005.78 1006.11 1006.32 1006.64 1007.03 1007.42 1008.07 1008.68 1009.16 1009.76 1010.38 1011.46 1012.22 1013.07 1013.66 1014.24 1015.19 1015.95 1016.58 1016.75 1017.33 1017.78 1018.13 1018.55 1018.92 1018.99 1019.30
Wind_Speed
6 6 8 10 11 12 12 13 12 22 22 23 23 25 17 15 8 5 11 13 15 13 14 16 18 16 17 16 14 14 8 6
6 6 6 6 5 9 12 14 15 21 20 19 20 25 23 19 18 7 11 15 13 13 13 15 15 15 18 16 14 13 7 6
6 7 6 5 5 5 8 11 17 26 24 17 12 10 15 17 14 19 15 16 14 13 13 12 12 15 18 18 13 5 6 4
6 6 7 6 4 5 4 6 8 10 14 16 10 9 10 12 15 14 19 17 16 14 12 13 11 7 8 12 6 7 5 4
7 6 7 8 5 4 3 3 5 7 11 11 11 8 7 6 6 8 8 14 7 8 8 4 8 8 5 6 8 6 3 3
7 7 8 9 5 5 5 5 5 5 8 11 9 7 6 6 6 9 8 7 8 7 4 5 6 7 8 8 9 7 3 3
7 7 7 7 7 6 5 5 6 6 8 8 8 8 8 8 8 9 8 7 8 7 7 5 5 7 8 9 8 7 6 3
7 7 6 7 6 7 5 5 5 7 6 8 9 9 9 10 9 9 9 9 7 8 8 6 5 6 7 7 8 7 6 6
10 8 7 7 6 7 6 6 6 7 8 11 14 12 11 13 11 10 9 10 8 6 6 4 6 6 7 6 7 7 6 6
9 7 7 6 6 5 5 6 6 6 6 9 14 14 15 10 11 10 9 10 9 9 8 5 7 8 6 5 5 5 6 6
11 8 8 7 6 4 4 6 6 6 6 6 14 16 13 14 11 10 11 10 9 10 4 7 7 7 7 4 4 5 6 6
9 7 7 6 5 3 2 4 4 4 8 7 10 11 13 14 11 11 11 10 9 8 10 3 5 8 7 6 4 3 4 5
10 10 7 6 4 3 2 2 3 2 4 12 12 11 15 13 10 12 11 11 11 10 8 11 3 5 7 4 4 2 1 2
10 9 8 6 5 3 3 3 2 1 1 10 10 17 15 12 13 13 12 10 9 11 10 5 3 6 5 4 3 1 3 3
11 11 9 6 6 3 2 2 2 2 0 8 13 15 14 13 14 13 12 10 9 10 10 7 8 2 9 6 3 4 3 2
11 12 7 6 6 5 7 4 3 2 2 3 11 16 13 9 12 13 12 9 11 9 8 5 7 8 2 3 3 5 4 1
11 10 6 6 7 6 6 4 4 5 5 5 12 13 14 10 9 10 9 7 8 11 9 7 7 6 4 3 2 1 3 3
11 13 11 7 6 6 7 6 6 7 8 6 7 9 9 12 12 9 7 7 7 7 7 8 8 6 3 4 3 3 3 3
11 15 13 10 11 7 6 7 7 8 11 8 9 8 9 12 16 12 9 9 7 6 5 6 5 5 7 4 3 2 4 3
14 16 14 12 10 9 7 7 5 6 8 8 7 9 10 14 12 12 11 11 11 7 4 3 5 2 4 3 4 3 3 4
Wind_Direction
157 162 175 182 186 186 183 173 176 143 146 148 142 132 149 141 114 141 131 121 118 127 134 130 123 122 125 120 120 114 109 107
162 165 164 172 191 199 192 191 174 138 154 160 155 148 151 183 150 206 152 134 128 135 141 132 122 133 133 125 116 105 104 99
168 169 169 167 176 197 192 172 153 154 164 171 155 143 160 159 145 161 174 137 136 144 147 125 123 147 137 128 121 114 104 96
175 179 167 164 172 156 140 159 163 170 165 163 164 173 166 161 153 160 182 146 144 152 139 119 119 134 129 119 125 114 102 107
182 185 165 163 168 156 154 148 147 162 165 171 169 171 175 154 166 166 174 146 147 150 132 113 139 142 120 122 127 114 113 107
181 181 172 174 160 165 171 163 146 157 162 164 158 157 170 156 155 159 147 153 145 151 121 123 132 127 135 145 124 126 114 116
181 179 171 163 164 169 170 170 160 155 161 170 173 168 166 160 165 157 154 142 153 156 138 134 121 138 138 129 133 125 124 118
167 178 168 157 166 167 167 165 169 167 179 183 194 184 178 172 163 165 153 154 160 162 150 153 137 136 132 138 135 126 125 135
167 170 163 173 172 170 163 173 178 179 192 184 188 188 184 175 166 161 172 145 145 127 129 132 118 145 132 131 139 136 139 143
161 165 170 176 162 170 174 180 177 188 196 198 191 194 176 166 167 164 162 140 154 153 152 151 142 142 130 138 131 141 145 146
162 164 171 170 153 168 172 170 181 194 182 180 189 190 179 166 162 156 163 143 157 162 140 148 142 132 134 127 138 156 159 159
153 162 167 166 135 145 176 158 199 215 193 173 184 178 168 157 155 149 152 151 154 156 150 122 131 135 141 128 137 163 161 172
162 164 176 158 142 154 168 177 189 229 182 165 167 160 159 154 156 150 154 160 165 162 143 134 125 126 114 67 46 45 222 208
162 168 169 178 153 145 145 162 186 186 149 172 155 159 159 153 158 155 158 153 155 161 159 124 107 161 138 109 120 356 245 216
167 170 174 180 155 132 123 142 114 153 104 176 150 150 153 155 161 156 157 162 161 168 163 143 153 204 166 136 134 200 139 184
163 168 170 173 157 163 192 198 175 142 128 164 149 149 147 144 153 154 164 162 168 165 171 163 135 170 104 80 86 139 157 231
165 158 172 157 181 178 190 201 179 134 113 142 138 146 150 146 142 150 160 157 167 166 170 160 156 158 165 136 110 160 119 123
162 161 182 170 185 177 181 167 150 146 141 132 144 136 141 152 155 151 146 143 153 157 167 161 161 160 144 134 143 176 129 174
168 173 185 172 189 173 172 162 166 159 154 148 136 150 158 167 166 161 162 144 124 123 115 103 121 153 165 150 147 206 134 141
173 179 181 172 181 165 166 159 157 162 161 155 157 165 165 154 162 160 159 157 150 142 124 126 102 117 164 158 191 201 171 154